CW8198 Weather Reports


Display with metric or nautical units.
time (UTC)temp
F
wind
direction
speed
MPH
gust
MPH
rain 1hr
in
rain 24hr
in
rain mn
in
humidity
%
barometer
mb
20260509051400 50 325 1.0 3.0 0.00 0.00 0.00 67 1007.2
20260509050902 50 309 2.0 3.0 0.00 0.00 0.00 67 1007.1
20260509050359 51 16 0.0 2.0 0.00 0.00 0.00 66 1007.2
20260509045859 51 9 1.0 2.0 0.00 0.00 0.00 66 1007.1
20260509044858 52 26 0.0 1.0 0.00 0.00 0.00 66 1007.1
20260509044358 52 205 0.0 1.0 0.00 0.00 0.00 66 1006.9
20260509043357 53 265 1.0 3.0 0.00 0.00 0.00 65 1006.9
20260509042859 53 309 0.0 1.0 0.00 0.00 0.00 65 1006.9
20260509042357 53 309 0.0 1.0 0.00 0.00 0.00 64 1006.8
20260509041856 54 309 0.0 1.0 0.00 0.00 0.00 63 1006.8
20260509041356 54 205 0.0 1.0 0.00 0.00 0.00 62 1006.8
20260509040855 55 265 0.0 1.0 0.00 0.00 0.00 60 1006.8
20260509040356 55 325 0.0 1.0 0.00 0.00 0.00 59 1006.8
20260509035857 55 325 0.0 1.0 0.00 0.00 0.00 58 1006.7
20260509035356 56 111 0.0 1.0 0.00 0.00 0.00 57 1006.7
20260509034855 56 309 0.0 1.0 0.00 0.00 0.00 57 1006.8
20260509034354 56 26 0.0 1.0 0.00 0.00 0.00 54 1006.8
20260509033855 57 309 0.0 1.0 0.00 0.00 0.00 54 1006.8
20260509033354 57 298 0.0 1.0 0.00 0.00 0.00 51 1006.7
20260509032348 58 178 1.0 2.0 0.00 0.00 0.00 50 1006.5
20260509031849 59 292 1.0 1.0 0.00 0.00 0.00 51 1006.5
20260509031348 59 93 0.0 1.0 0.00 0.00 0.00 48 1006.4
20260509030849 60 309 0.0 2.0 0.00 0.00 0.00 47 1006.4
20260509030341 60 309 1.0 2.0 0.00 0.00 0.00 46 1006.3
20260509025837 61 9 1.0 2.0 0.00 0.00 0.00 43 1006.2
20260509025336 62 238 0.0 2.0 0.00 0.00 0.00 42 1006.2
20260509024836 62 205 1.0 4.0 0.00 0.00 0.00 43 1006.0
20260509024336 62 153 1.0 4.0 0.00 0.00 0.00 39 1006.0
20260509023835 61 347 2.0 3.0 0.00 0.00 0.00 38 1006.0
20260509023335 61 9 0.0 1.0 0.00 0.00 0.00 42 1005.9
20260509022834 62 51 0.0 1.0 0.00 0.00 0.00 42 1005.7
20260509022333 62 126 0.0 1.0 0.00 0.00 0.00 41 1005.6
20260509021833 63 93 0.0 1.0 0.00 0.00 0.00 40 1005.6
20260509021328 64 119 0.0 2.0 0.00 0.00 0.00 38 1005.5
20260509020829 65 9 0.0 2.0 0.00 0.00 0.00 38 1005.4
20260509020328 66 205 0.0 2.0 0.00 0.00 0.00 35 1005.4
20260509015827 66 108 0.0 2.0 0.00 0.00 0.00 34 1005.3
20260509015323 67 126 0.0 1.0 0.00 0.00 0.00 33 1005.3
20260509014824 67 51 0.0 1.0 0.00 0.00 0.00 33 1005.3
20260509014322 68 51 0.0 1.0 0.00 0.00 0.00 32 1005.2
20260509013822 68 137 0.0 2.0 0.00 0.00 0.00 32 1005.2
20260509013321 68 51 1.0 2.0 0.00 0.00 0.00 31 1005.2
20260509012321 69 336 1.0 4.0 0.00 0.00 0.00 31 1005.1
20260509011315 70 9 2.0 8.0 0.00 0.00 0.00 30 1005.0
20260509010815 71 325 3.0 8.0 0.00 0.00 0.00 29 1005.0
20260509005815 72 325 2.0 8.0 0.00 0.00 0.00 31 1004.9
20260509005315 72 334 2.0 10.0 0.00 0.00 0.00 29 1004.9
20260509004314 73 302 2.0 11.0 0.00 0.00 0.00 30 1004.8
20260509003815 74 301 3.0 11.0 0.00 0.00 0.00 29 1004.8
20260509003314 74 15 3.0 9.0 0.00 0.00 0.00 29 1004.8
20260509002313 75 277 4.0 11.0 0.00 0.00 0.00 30 1004.7
20260509001813 75 272 3.0 11.0 0.00 0.00 0.00 30 1004.7
20260509000812 75 13 3.0 7.0 0.00 0.00 0.00 34 1004.7
20260509000311 75 289 3.0 10.0 0.00 0.00 0.00 34 1004.6
20260508235812 74 282 3.0 10.0 0.00 0.00 0.00 34 1004.8
20260508235313 74 286 2.0 7.0 0.00 0.00 0.00 38 1004.8
20260508234811 74 277 4.0 8.0 0.00 0.00 0.00 35 1004.7
20260508234311 73 304 3.0 10.0 0.00 0.00 0.00 36 1004.8
20260508233311 73 243 4.0 8.0 0.00 0.00 0.00 35 1004.8
20260508232810 73 271 3.0 6.0 0.00 0.00 0.00 38 1004.8
20260508232310 73 255 2.0 5.0 0.00 0.00 0.00 36 1004.8
20260508231809 73 254 2.0 7.0 0.00 0.00 0.00 35 1004.8
20260508231309 73 279 2.0 7.0 0.00 0.00 0.00 36 1004.8
20260508230809 73 236 2.0 4.0 0.00 0.00 0.00 33 1004.9
20260508230309 73 178 1.0 4.0 0.00 0.00 0.00 34 1004.9
20260508225808 74 275 2.0 6.0 0.00 0.00 0.00 34 1004.9
20260508224808 74 286 2.0 8.0 0.00 0.00 0.00 34 1004.9
20260508224307 74 254 4.0 13.0 0.00 0.00 0.00 32 1004.9
20260508222306 76 344 1.0 5.0 0.00 0.00 0.00 35 1005.0
20260508221305 76 334 2.0 8.0 0.00 0.00 0.00 38 1005.2
20260508220805 76 225 3.0 9.0 0.00 0.00 0.00 30 1005.2
20260508220305 76 226 4.0 11.0 0.00 0.00 0.00 28 1005.2
20260508215306 77 242 4.0 15.0 0.00 0.00 0.00 29 1005.1
20260508214804 78 223 6.0 12.0 0.00 0.00 0.00 28 1005.2
20260508213805 76 225 3.0 11.0 0.00 0.00 0.00 27 1005.3
20260508213303 76 259 5.0 11.0 0.00 0.00 0.00 32 1005.4
20260508212803 76 234 5.0 12.0 0.00 0.00 0.00 29 1005.4
20260508212306 78 217 6.0 12.0 0.00 0.00 0.00 28 1005.4
20260508211802 78 246 5.0 12.0 0.00 0.00 0.00 31 1005.5
20260508211302 78 298 8.0 12.0 0.00 0.00 0.00 28 1005.5
20260508210801 78 249 6.0 14.0 0.00 0.00 0.00 31 1005.6
20260508210301 79 232 5.0 14.0 0.00 0.00 0.00 28 1005.8
20260508205801 78 234 7.0 12.0 0.00 0.00 0.00 29 1005.8
20260508205301 77 221 8.0 12.0 0.00 0.00 0.00 31 1005.8
20260508204800 76 244 4.0 12.0 0.00 0.00 0.00 30 1005.9
20260508204300 76 240 8.0 12.0 0.00 0.00 0.00 28 1006.0
20260508203802 77 275 4.0 13.0 0.00 0.00 0.00 29 1006.1
20260508203259 77 314 6.0 13.0 0.00 0.00 0.00 32 1006.2
20260508201758 76 223 7.0 15.0 0.00 0.00 0.00 31 1006.2
20260508201256 76 234 3.0 15.0 0.00 0.00 0.00 37 1006.4
20260508200756 75 26 4.0 9.0 0.00 0.00 0.00 31 1006.4
20260508200257 75 183 2.0 9.0 0.00 0.00 0.00 31 1006.5
20260508195756 76 207 5.0 12.0 0.00 0.00 0.00 30 1006.6
20260508194755 76 277 4.0 14.0 0.00 0.00 0.00 28 1006.7
20260508194254 76 248 4.0 13.0 0.00 0.00 0.00 34 1006.8
20260508193252 76 178 4.0 9.0 0.00 0.00 0.00 27 1006.9
20260508192252 76 113 3.0 15.0 0.00 0.00 0.00 25 1006.9
20260508191751 77 171 6.0 11.0 0.00 0.00 0.00 29 1006.8
20260508191251 77 254 3.0 9.0 0.00 0.00 0.00 32 1006.9
20260508190251 75 229 3.0 7.0 0.00 0.00 0.00 31 1007.2
20260508185751 75 184 2.0 10.0 0.00 0.00 0.00 30 1007.2
20260508185250 75 209 6.0 10.0 0.00 0.00 0.00 27 1007.2
20260508184250 76 205 6.0 12.0 0.00 0.00 0.00 31 1007.3
20260508183249 76 218 3.0 11.0 0.00 0.00 0.00 32 1007.3
20260508182749 75 261 4.0 11.0 0.00 0.00 0.00 41 1007.5
20260508182249 75 198 4.0 9.0 0.00 0.00 0.00 32 1007.5
20260508181749 74 93 2.0 11.0 0.00 0.00 0.00 31 1007.5
20260508181248 74 214 6.0 11.0 0.00 0.00 0.00 32 1007.6
20260508180748 74 221 5.0 10.0 0.00 0.00 0.00 33 1007.6
20260508180248 74 34 5.0 10.0 0.00 0.00 0.00 32 1007.6
20260508175748 74 194 4.0 8.0 0.00 0.00 0.00 32 1007.7
20260508174748 74 182 4.0 10.0 0.00 0.00 0.00 33 1007.7
20260508174247 74 269 6.0 10.0 0.00 0.00 0.00 33 1007.8
20260508173748 74 175 4.0 9.0 0.00 0.00 0.00 34 1007.8
20260508173247 74 221 5.0 10.0 0.00 0.00 0.00 32 1007.9
20260508172247 73 51 4.0 10.0 0.00 0.00 0.00 32 1008.0
20260508171746 73 211 4.0 10.0 0.00 0.00 0.00 36 1008.1
20260508171245 72 93 4.0 10.0 0.00 0.00 0.00 35 1008.1
20260508170745 73 203 4.0 10.0 0.00 0.00 0.00 37 1008.1
20260508165745 72 173 3.0 6.0 0.00 0.00 0.00 36 1008.3
20260508165245 71 140 2.0 5.0 0.00 0.00 0.00 34 1008.4
20260508164744 70 221 2.0 6.0 0.00 0.00 0.00 32 1008.3
20260508164244 70 214 3.0 6.0 0.00 0.00 0.00 31 1008.3
20260508163746 71 229 2.0 5.0 0.00 0.00 0.00 32 1008.4
20260508163243 71 208 2.0 5.0 0.00 0.00 0.00 32 1008.4
20260508162743 71 110 1.0 4.0 0.00 0.00 0.00 34 1008.4
20260508162243 71 200 2.0 4.0 0.00 0.00 0.00 34 1008.4
20260508161743 71 280 1.0 4.0 0.00 0.00 0.00 34 1008.6
20260508161242 71 24 2.0 5.0 0.00 0.00 0.00 32 1008.4
20260508160742 71 139 2.0 5.0 0.00 0.00 0.00 33 1008.5
20260508160241 71 171 2.0 5.0 0.00 0.00 0.00 33 1008.5
20260508155739 71 150 2.0 7.0 0.00 0.00 0.00 34 1008.7
20260508155239 71 93 3.0 7.0 0.00 0.00 0.00 39 1008.4
20260508154234 71 200 3.0 5.0 0.00 0.00 0.00 36 1008.5
20260508153233 70 137 1.0 3.0 0.00 0.00 0.00 40 1008.6
20260508152733 69 249 1.0 4.0 0.00 0.00 0.00 41 1008.6
20260508152233 69 219 1.0 5.0 0.00 0.00 0.00 38 1008.7
20260508151732 68 128 2.0 5.0 0.00 0.00 0.00 41 1008.7
20260508151231 67 243 2.0 5.0 0.00 0.00 0.00 40 1008.7
20260508150731 67 167 3.0 5.0 0.00 0.00 0.00 41 1008.8
20260508150231 66 137 2.0 5.0 0.00 0.00 0.00 46 1008.9
20260508145731 65 163 2.0 5.0 0.00 0.00 0.00 48 1009.0
20260508145229 65 198 2.0 6.0 0.00 0.00 0.00 47 1008.9
20260508144731 64 132 3.0 6.0 0.00 0.00 0.00 46 1008.9
20260508144228 64 167 3.0 6.0 0.00 0.00 0.00 48 1008.9
20260508143727 63 185 3.0 6.0 0.00 0.00 0.00 51 1009.0
20260508143226 62 242 3.0 6.0 0.00 0.00 0.00 50 1009.2
20260508142727 62 208 3.0 6.0 0.00 0.00 0.00 51 1009.2
20260508142227 62 217 3.0 6.0 0.00 0.00 0.00 51 1009.2
20260508141726 61 212 2.0 3.0 0.00 0.00 0.00 53 1009.2
20260508141225 60 196 1.0 2.0 0.00 0.00 0.00 55 1009.2
20260508140724 60 265 1.0 3.0 0.00 0.00 0.00 56 1009.3
20260508140226 58 165 1.0 3.0 0.00 0.00 0.00 58 1009.2
20260508135724 57 238 1.0 2.0 0.00 0.00 0.00 61 1009.3
20260508135225 56 111 1.0 2.0 0.00 0.00 0.00 63 1009.3
20260508134223 54 137 0.0 2.0 0.00 0.00 0.00 67 1009.4
20260508133722 54 291 0.0 2.0 0.00 0.00 0.00 67 1009.3
20260508133222 53 137 1.0 2.0 0.00 0.00 0.00 69 1009.4
20260508132722 53 265 0.0 2.0 0.00 0.00 0.00 70 1009.4
20260508132217 53 291 1.0 2.0 0.00 0.00 0.00 69 1009.4
20260508131717 53 153 1.0 2.0 0.00 0.00 0.00 69 1009.2
20260508130716 52 119 1.0 2.0 0.00 0.00 0.00 69 1009.0
20260508130216 51 193 1.0 2.0 0.00 0.00 0.00 71 1009.0
20260508125216 51 178 1.0 2.0 0.00 0.00 0.00 72 1008.9
20260508124715 51 221 1.0 2.0 0.00 0.00 0.00 71 1008.8
20260508124209 51 9 1.0 2.0 0.00 0.00 0.00 72 1008.7
20260508123709 51 9 0.0 2.0 0.00 0.00 0.00 73 1008.8
20260508123209 51 232 0.0 2.0 0.00 0.00 0.00 74 1008.8
20260508122709 51 51 0.0 1.0 0.00 0.00 0.00 73 1008.7
20260508122210 51 162 0.0 2.0 0.00 0.00 0.00 72 1008.7
20260508121707 50 221 1.0 2.0 0.00 0.00 0.00 72 1008.8
20260508121207 50 111 1.0 2.0 0.00 0.00 0.00 71 1008.7
20260508120707 50 265 0.0 2.0 0.00 0.00 0.00 71 1008.7
20260508120206 49 51 1.0 2.0 0.00 0.00 0.00 72 1008.8
20260508114706 49 119 1.0 2.0 0.00 0.00 0.00 73 1009.0
20260508114206 49 57 1.0 4.0 0.00 0.00 0.00 73 1008.9
20260508113206 49 121 1.0 3.0 0.00 0.00 0.00 72 1008.8
20260508112704 49 141 1.0 2.0 0.00 0.00 0.00 72 1008.8
20260508112204 49 265 1.0 2.0 0.00 0.00 0.00 71 1008.8
20260508111703 49 309 0.0 2.0 0.00 0.00 0.00 71 1008.9
20260508110702 49 178 0.0 3.0 0.00 0.00 0.00 69 1009.0
20260508110157 49 334 1.0 2.0 0.00 0.00 0.00 69 1009.0
20260508105658 49 9 1.0 1.0 0.00 0.00 0.00 68 1009.0
20260508105157 49 51 0.0 1.0 0.00 0.00 0.00 67 1008.9
20260508104657 49 51 0.0 2.0 0.00 0.00 0.00 68 1008.9
20260508103150 49 292 1.0 2.0 0.00 0.00 0.00 65 1009.0
20260508102650 49 178 0.0 2.0 0.00 0.00 0.00 67 1009.1
20260508102150 49 26 1.0 3.0 0.00 0.00 0.00 68 1009.0
20260508101649 49 17 0.0 3.0 0.00 0.00 0.00 69 1009.0
20260508101149 49 9 2.0 3.0 0.00 0.00 0.00 70 1009.2
20260508100649 49 110 2.0 3.0 0.00 0.00 0.00 69 1009.0
20260508100148 49 119 1.0 2.0 0.00 0.00 0.00 69 1009.1
20260508095649 49 178 0.0 2.0 0.00 0.00 0.00 67 1009.3
20260508095150 49 196 1.0 2.0 0.00 0.00 0.00 65 1009.4
20260508094648 49 217 0.0 3.0 0.00 0.00 0.00 63 1009.5
20260508094147 49 83 1.0 3.0 0.00 0.00 0.00 64 1009.5
20260508093647 50 22 1.0 3.0 0.00 0.00 0.00 66 1009.6
20260508093147 50 221 1.0 3.0 0.00 0.00 0.00 65 1009.6
20260508092647 50 17 2.0 3.0 0.00 0.00 0.00 66 1009.3
20260508091646 51 93 1.0 4.0 0.00 0.00 0.00 65 1009.2
20260508090646 51 28 2.0 3.0 0.00 0.00 0.00 63 1009.6
20260508090146 52 9 1.0 3.0 0.00 0.00 0.00 64 1009.7
20260508085646 52 153 1.0 3.0 0.00 0.00 0.00 62 1009.7
20260508085140 52 9 1.0 3.0 0.00 0.00 0.00 63 1009.7
20260508084639 52 221 1.0 5.0 0.00 0.00 0.00 60 1009.7
20260508084138 51 24 1.0 5.0 0.00 0.00 0.00 65 1009.7
20260508083638 52 216 2.0 5.0 0.00 0.00 0.00 64 1009.8
20260508082637 52 230 3.0 5.0 0.00 0.00 0.00 65 1009.6
20260508081137 52 15 1.0 2.0 0.00 0.00 0.00 66 1009.3
20260508080637 52 126 2.0 2.0 0.00 0.00 0.00 65 1009.6
20260508080138 51 247 0.0 2.0 0.00 0.00 0.00 64 1009.6
20260508075630 51 64 1.0 3.0 0.00 0.00 0.00 66 1009.7
20260508075131 50 31 1.0 4.0 0.00 0.00 0.00 68 1009.9
20260508074631 50 334 2.0 4.0 0.00 0.00 0.00 69 1009.9
20260508073629 51 255 2.0 3.0 0.00 0.00 0.00 70 1009.7
20260508072629 51 186 2.0 4.0 0.00 0.00 0.00 70 1009.2
20260508072129 51 209 1.0 4.0 0.00 0.00 0.00 69 1009.3
20260508071628 51 209 2.0 4.0 0.00 0.00 0.00 66 1009.4
20260508071128 50 26 1.0 2.0 0.00 0.00 0.00 67 1009.4
20260508070629 50 9 1.0 2.0 0.00 0.00 0.00 69 1009.5
20260508070124 50 9 1.0 2.0 0.00 0.00 0.00 71 1009.6
20260508065623 49 221 0.0 2.0 0.00 0.00 0.00 72 1009.6
20260508065123 49 137 1.0 2.0 0.00 0.00 0.00 71 1009.7
20260508064622 49 319 0.0 2.0 0.00 0.00 0.00 72 1009.8
20260508064122 49 34 1.0 2.0 0.00 0.00 0.00 73 1009.8
20260508063622 48 111 1.0 2.0 0.00 0.00 0.00 74 1009.8
20260508063121 48 93 0.0 2.0 0.00 0.00 0.00 73 1009.9
20260508062621 48 334 1.0 2.0 0.00 0.00 0.00 73 1009.9
20260508061620 47 178 0.0 3.0 0.00 0.00 0.00 74 1009.8
20260508061120 47 334 1.0 3.0 0.00 0.00 0.00 74 1009.7
20260508060620 47 336 1.0 2.0 0.00 0.00 0.00 74 1009.4
20260508060119 47 205 1.0 2.0 0.00 0.00 0.00 74 1009.5
20260508055118 47 334 0.0 1.0 0.00 0.00 0.00 75 1009.3
20260508054620 47 238 0.0 2.0 0.00 0.00 0.00 76 1009.5
20260508054113 47 265 1.0 2.0 0.00 0.00 0.00 76 1009.6
20260508053612 47 212 0.0 2.0 0.00 0.00 0.00 76 1009.5
20260508052602 47 321 1.0 3.0 0.00 0.00 0.00 76 1009.5
20260508052102 47 22 1.0 2.0 0.00 0.00 0.00 75 1009.5